Frenchville, ME

10:30 PM EDT on May 26, 2017 (GMT -0400)
Northern Aroostook Regional

Weather History for KFVE - March, 2014

Change the Weather History Date:

Tuesday, March 4, 2014

  Actual Average Record
Temperature  
Mean Temperature -2 °F 19 °F  
Max Temperature 9 °F 28 °F 46 °F (1999)
Min Temperature -14 °F 10 °F -14 °F (2014)
Degree Days  
Heating Degree Days 67    
Month to date heating degree days 255  
Since 1 July heating degree days 7189  
Cooling Degree Days 0    
Month to date cooling degree days 0  
Year to date cooling degree days 0  
Moisture  
Dew Point -13 °F    
Average Humidity 63    
Maximum Humidity 78    
Minimum Humidity 48    
Precipitation  
Precipitation T in 0.03 in 0.26 in (1999)
Month to date precipitation T 0.13  
Year to date precipitation 2.92 2.70  
Sea Level Pressure  
Sea Level Pressure 30.22 in    
Wind  
Wind Speed 9 mph (WNW)    
Max Wind Speed 20 mph    
Max Gust Speed 24 mph    
Visibility 10 miles    
Events      
T = Trace of Precipitation, MM = Missing Value Source: NWS Daily Summary

Daily Weather History Graph

Daily Weather History Graph

Search for Another Location

Airport or City:

Trip Planner

Search our weather history database for the weather conditions in past years. The results will help you decide how hot, cold, wet, or windy it might be!

Date:

Astronomy

Mar. 04, 2014 Rise Set
Actual Time 6:07 AM EST 5:22 PM EST
Civil Twilight 5:37 AM EST 5:53 PM EST
Nautical Twilight 5:01 AM EST 6:28 PM EST
Astronomical Twilight 4:26 AM EST 7:04 PM EST
Moon 7:35 AM EST (3/4) 9:45 PM EST (3/4)
Length of Visible Light 12h 16m
Length of Day
11h 15m
Waxing Crescent, 14% of the Moon is Illuminated
Mar 4
Waxing Crescent
Mar 8
First Quarter
Mar 16
Full
Mar 23
Last Quarter
Mar 30
New

Hourly Weather History & Observations

Time (EST) Temp. Windchill Dew Point Humidity Pressure Visibility Wind Dir Wind Speed Gust Speed Precip Events Conditions
12:53 AM -9.0 °F -18.2 °F -16.1 °F 71% 30.17 in 9.0 mi SW 3.5 mph - N/A   Overcast
1:53 AM -8.0 °F -16.9 °F -15.0 °F 71% 30.17 in 10.0 mi WNW 3.5 mph - N/A   Overcast
2:53 AM -8.0 °F -19.2 °F -14.1 °F 75% 30.16 in 10.0 mi NW 4.6 mph - N/A   Overcast
3:53 AM -8.0 °F -16.9 °F -14.1 °F 75% 30.17 in 10.0 mi West 3.5 mph - N/A   Overcast
4:53 AM -11.9 °F -25.7 °F -17.0 °F 78% 30.17 in 10.0 mi South 5.8 mph - 0.00 in   Clear
5:53 AM -11.0 °F -24.6 °F -17.0 °F 75% 30.17 in 10.0 mi South 5.8 mph - N/A   Clear
6:53 AM -11.9 °F -27.3 °F -18.0 °F 74% 30.17 in 10.0 mi SSW 6.9 mph - N/A   Clear
7:53 AM -9.0 °F -23.8 °F -16.1 °F 71% 30.18 in 10.0 mi SW 6.9 mph - N/A   Partly Cloudy
8:53 AM -4.0 °F -19.0 °F -15.0 °F 59% 30.18 in 10.0 mi SW 8.1 mph - N/A   Clear
9:53 AM 1.9 °F -13.8 °F -13.0 °F 50% 30.17 in 10.0 mi WSW 10.4 mph - N/A   Clear
10:53 AM 5.0 °F -9.1 °F -9.9 °F 50% 30.17 in 10.0 mi WSW 9.2 mph - N/A   Scattered Clouds
11:53 AM 7.0 °F -10.4 °F -9.0 °F 48% 30.17 in 10.0 mi West 15.0 mph 20.7 mph N/A   Overcast
12:53 PM 7.0 °F -9.8 °F -5.1 °F 58% 30.17 in 10.0 mi WNW 13.8 mph - N/A   Overcast
1:53 PM 7.0 °F -4.5 °F -4.0 °F 61% 30.17 in 9.0 mi North 6.9 mph - 0.00 in   Overcast
2:53 PM 8.1 °F -5.3 °F -7.1 °F 50% 30.18 in 10.0 mi NNW 9.2 mph 17.3 mph N/A   Clear
3:53 PM 5.0 °F -14.2 °F -9.0 °F 52% 30.21 in 10.0 mi NNW 17.3 mph - N/A   Clear
4:53 PM 1.9 °F -18.1 °F -11.0 °F 55% 30.23 in 10.0 mi NNW 17.3 mph - N/A   Clear
5:53 PM -0.0 °F -18.7 °F -11.9 °F 57% 30.27 in 10.0 mi NNW 13.8 mph - N/A   Clear
6:53 PM -0.9 °F -19.1 °F -15.0 °F 52% 30.30 in 10.0 mi NNW 12.7 mph - N/A   Clear
7:53 PM -4.0 °F -21.2 °F -15.0 °F 59% 30.32 in 10.0 mi NNW 10.4 mph - N/A   Clear
8:53 PM -5.1 °F -20.4 °F -15.0 °F 62% 30.32 in 10.0 mi NNW 8.1 mph - N/A   Clear
9:53 PM -6.0 °F -18.6 °F -15.0 °F 65% 30.33 in 10.0 mi NNW 5.8 mph - N/A   Scattered Clouds
10:53 PM -6.0 °F -16.9 °F -14.1 °F 68% 30.33 in 10.0 mi NNW 4.6 mph - N/A   Clear
11:53 PM -8.0 °F -16.9 °F -14.1 °F 75% 30.34 in 10.0 mi North 3.5 mph - N/A   Clear